Flag for Canada Weather past 2 weeks in Rainy River, Ontario, Canada

Now
28 °F

Light snow. Ice fog.


Feels Like: 21 °F
Forecast: 27 / 31 °F
Wind: 7 mph from South

Location: Baudette International Airport

Current Time: Dec 21, 2014 at 6:19:04 AM

Latest Report: Dec 21, 2014 at 6:00 AM


Visibility: 4 mi

Pressure: 29.79 "Hg

Humidity: 93%

Dew point: 26 °F

Location of Rainy RiverLocation

Historic Weather in Rainy River — Graph

°F

Rainy River temperature yesterday

Maximum temperature yesterday: 31 °F (at 12:53 PM)
Minimum temperature yesterday: 25 °F (at 12:53 AM)
Average temperature yesterday: 28 °F

Past Weeks' High & Low Weather Summary

 TemperatureHumidityPressure
High37 °F (Dec 12, 1:53 PM)100% (Dec 13, 4:53 AM)30.68 "Hg (Dec 13, 4:53 AM)
Low0 °F (Dec 6, 5:53 AM)55% (Dec 6, 11:53 PM)29.78 "Hg (Dec 15, 3:03 AM)
Average23 °F86%30.16 "Hg
* Reported Dec 6 4:53 AM — Dec 21 4:53 AM, Rainy River, Weather by CustomWeather, © 2014

Note: Actual official high and low records may vary slightly from our data, if they occured in-between our weather recording intervals... More about our weather records

Advertising

Rainy River weather history for previous 24 hours

 ConditionsComfort  
Time TempWeatherWind HumidityBarometerVisibility
4:53 AM
Dec 21
29 °FLow clouds.9 mph89%29.85 "Hg8 mi
3:53 AM29 °FLow clouds.8 mph89%29.87 "Hg10 mi
2:53 AM29 °FMostly cloudy.8 mph89%29.89 "Hg10 mi
2:01 AM29 °FLight snow. Ice fog.7 mph93%29.86 "Hg1 mi
1:03 AM29 °FLight snow. Ice fog.6 mph93%29.88 "Hg1 mi
12:58 AM29 °FLight snow. Ice fog.6 mph93%29.88 "Hg1 mi
11:53 PM
Dec 20
29 °FLow clouds.9 mph93%29.95 "Hg9 mi
10:53 PM30 °FLow clouds.12 mph89%29.96 "Hg8 mi
9:53 PM30 °FLow clouds.8 mph89%29.96 "Hg7 mi
8:53 PM29 °FIce fog.7 mph93%29.98 "Hg5 mi
7:53 PM29 °FLow clouds.9 mph93%29.99 "Hg7 mi
6:53 PM30 °FLow clouds.10 mph89%30.00 "Hg8 mi
5:53 PM30 °FMostly cloudy.7 mph92%30.01 "Hg8 mi
4:53 PM30 °FLow clouds.7 mph89%30.03 "Hg10 mi
3:53 PM30 °FLow clouds.7 mph89%30.03 "Hg10 mi
3:03 PM30 °FLow clouds.8 mph89%29.97 "Hg10 mi
2:53 PM30 °FOvercast.7 mph89%30.02 "Hg10 mi
1:53 PM31 °FOvercast.9 mph85%30.02 "Hg10 mi
12:53 PM31 °FIce fog.9 mph89%30.03 "Hg6 mi
11:53 AM30 °FIce fog.6 mph92%30.05 "Hg2 mi
11:03 AM30 °FIce fog.7 mph92%30.01 "Hg3 mi
9:53 AM29 °FIce fog.5 mph93%30.07 "Hg2 mi
8:53 AM28 °FIce fog.6 mph93%30.06 "Hg2 mi
8:01 AM28 °FIce fog.5 mph93%30.02 "Hg2 mi
6:53 AM27 °FIce fog.3 mph96%30.08 "Hg2 mi
Weather by CustomWeather, © 2014

See weather overviewHow to use our weather pages